| time (UTC) | temp F | wind direction | speed MPH | gust MPH | rain 1hr in | rain 24hr in | rain mn in | humidity % | barometer mb |
| 20260505223004 | 60 | 356 | 0.0 | 4.0 | 0.00 | 0.00 | 0.10 | 79 | 1002.0 |
| 20260505221503 | 61 | 23 | 2.0 | 3.0 | 0.00 | 0.00 | 0.10 | 77 | 1002.0 |
| 20260505220004 | 61 | 102 | 0.0 | 4.0 | 0.00 | 0.00 | 0.10 | 79 | 1002.0 |
| 20260505214503 | 60 | 12 | 0.0 | 0.0 | 0.00 | 0.00 | 0.10 | 81 | 1002.0 |
| 20260505211503 | 60 | 62 | 2.0 | 2.0 | 0.00 | 0.00 | 0.10 | 79 | 1002.4 |
| 20260505210004 | 60 | 40 | 0.0 | 4.0 | 0.00 | 0.00 | 0.10 | 78 | 1002.4 |
| 20260505205003 | 60 | 52 | 3.0 | 3.0 | 0.00 | 0.00 | 0.10 | 80 | 1002.4 |
| 20260505203503 | 60 | 34 | 0.0 | 0.0 | 0.00 | 0.00 | 0.10 | 79 | 1002.4 |
| 20260505195004 | 58 | 349 | 0.0 | 0.0 | 0.00 | 0.00 | 0.10 | 82 | 1002.7 |
| 20260505193503 | 59 | 84 | 0.0 | 0.0 | 0.00 | 0.00 | 0.10 | 81 | 1002.7 |
| 20260505192004 | 57 | 66 | 2.0 | 3.0 | 0.00 | 0.00 | 0.10 | 82 | 1002.7 |
| 20260505185004 | 56 | 306 | 0.0 | 0.0 | 0.00 | 0.00 | 0.10 | 88 | 1002.7 |
| 20260505183503 | 56 | 356 | 0.0 | 0.0 | 0.00 | 0.00 | 0.10 | 88 | 1002.7 |
| 20260505182004 | 56 | 25 | 0.0 | 0.0 | 0.00 | 0.00 | 0.10 | 88 | 1002.7 |
| 20260505180503 | 56 | 358 | 0.0 | 0.0 | 0.00 | 0.00 | 0.10 | 88 | 1002.4 |
| 20260505175004 | 55 | 355 | 0.0 | 0.0 | 0.00 | 0.00 | 0.10 | 92 | 1002.4 |
| 20260505173505 | 55 | 354 | 0.0 | 0.0 | 0.00 | 0.00 | 0.10 | 93 | 1002.4 |
| 20260505172003 | 54 | 338 | 0.0 | 0.0 | 0.00 | 0.00 | 0.10 | 93 | 1002.0 |
| 20260505170504 | 54 | 334 | 0.0 | 0.0 | 0.00 | 0.00 | 0.10 | 94 | 1002.4 |
| 20260505165004 | 54 | 0 | 0.0 | 0.0 | 0.00 | 0.00 | 0.10 | 94 | 1002.4 |
| 20260505163504 | 53 | 359 | 0.0 | 0.0 | 0.00 | 0.00 | 0.10 | 94 | 1002.0 |
| 20260505162004 | 53 | 10 | 0.0 | 0.0 | 0.00 | 0.00 | 0.10 | 94 | 1002.0 |
| 20260505160505 | 53 | 55 | 0.0 | 0.0 | 0.00 | 0.00 | 0.10 | 94 | 1002.0 |
| 20260505151003 | 51 | 353 | 0.0 | 0.0 | 0.00 | 0.00 | 0.10 | 94 | 1001.7 |
| 20260505124003 | 50 | 24 | 0.0 | 0.0 | 0.00 | 0.00 | 0.10 | 94 | 1001.0 |
| 20260505121004 | 50 | 3 | 0.0 | 0.0 | 0.00 | 0.00 | 0.10 | 94 | 1001.0 |
| 20260505115503 | 50 | 352 | 0.0 | 0.0 | 0.00 | 0.00 | 0.10 | 94 | 1001.0 |
| 20260505114003 | 50 | 4 | 0.0 | 0.0 | 0.00 | 0.00 | 0.10 | 94 | 1001.0 |
| 20260505111004 | 50 | 344 | 0.0 | 0.0 | 0.00 | 0.00 | 0.10 | 94 | 1001.4 |
| 20260505101504 | 50 | 344 | 0.0 | 0.0 | 0.01 | 0.00 | 0.10 | 94 | 1001.0 |
| 20260505100003 | 50 | 10 | 0.0 | 0.0 | 0.01 | 0.00 | 0.10 | 94 | 1001.0 |
| 20260505091503 | 50 | 358 | 0.0 | 0.0 | 0.00 | 0.00 | 0.09 | 94 | 1001.4 |
| 20260505084504 | 50 | 13 | 0.0 | 0.0 | 0.00 | 0.00 | 0.09 | 94 | 1001.7 |
| 20260505083005 | 50 | 336 | 0.0 | 0.0 | 0.00 | 0.00 | 0.09 | 94 | 1001.7 |
| 20260505081504 | 51 | 332 | 0.0 | 0.0 | 0.00 | 0.00 | 0.09 | 94 | 1001.7 |
| 20260505080004 | 50 | 355 | 0.0 | 0.0 | 0.00 | 0.00 | 0.09 | 94 | 1001.7 |
| 20260505074503 | 50 | 357 | 0.0 | 0.0 | 0.00 | 0.00 | 0.09 | 94 | 1001.4 |
| 20260505073004 | 51 | 355 | 0.0 | 0.0 | 0.01 | 0.00 | 0.09 | 94 | 1001.7 |
| 20260505071004 | 51 | 343 | 0.0 | 0.0 | 0.01 | 0.00 | 0.09 | 94 | 1001.7 |
| 20260505065503 | 51 | 359 | 0.0 | 0.0 | 0.01 | 0.00 | 0.09 | 94 | 1002.0 |
| 20260505064004 | 51 | 291 | 0.0 | 0.0 | 0.01 | 0.00 | 0.09 | 94 | 1002.4 |
| 20260505063003 | 51 | 336 | 0.0 | 0.0 | 0.00 | 0.00 | 0.08 | 94 | 1002.7 |
| 20260505061503 | 51 | 2 | 0.0 | 0.0 | 0.00 | 0.00 | 0.08 | 94 | 1002.0 |
| 20260505060005 | 51 | 343 | 0.0 | 0.0 | 0.00 | 0.00 | 0.08 | 93 | 1001.7 |
| 20260505055003 | 51 | 4 | 0.0 | 0.0 | 0.00 | 0.00 | 0.08 | 93 | 1001.7 |
| 20260505053503 | 51 | 344 | 0.0 | 0.0 | 0.00 | 0.00 | 0.08 | 93 | 1002.0 |
| 20260505052004 | 51 | 3 | 0.0 | 0.0 | 0.00 | 0.00 | 0.08 | 93 | 1002.4 |
| 20260505051002 | 51 | 357 | 0.0 | 0.0 | 0.00 | 0.00 | 0.08 | 93 | 1002.7 |
| 20260505041004 | 51 | 327 | 0.0 | 0.0 | 0.01 | 0.00 | 0.08 | 93 | 1002.0 |
| 20260505040003 | 51 | 347 | 0.0 | 0.0 | 0.01 | 0.00 | 0.08 | 93 | 1002.0 |
| 20260505033004 | 51 | 20 | 0.0 | 0.0 | 0.00 | 0.00 | 0.07 | 93 | 1001.0 |
| 20260505031504 | 51 | 8 | 0.0 | 0.0 | 0.00 | 0.00 | 0.07 | 93 | 1001.0 |
| 20260505030503 | 51 | 330 | 0.0 | 0.0 | 0.00 | 0.00 | 0.07 | 93 | 1001.4 |
| 20260505025004 | 51 | 339 | 0.0 | 0.0 | 0.02 | 0.00 | 0.07 | 93 | 1001.7 |
| 20260505015004 | 52 | 358 | 0.0 | 0.0 | 0.02 | 0.00 | 0.05 | 93 | 1001.7 |
| 20260505014003 | 52 | 348 | 0.0 | 0.0 | 0.02 | 0.00 | 0.05 | 93 | 1002.0 |
| 20260505012503 | 52 | 325 | 0.0 | 0.0 | 0.02 | 0.00 | 0.04 | 93 | 1002.4 |
| 20260505011004 | 52 | 9 | 0.0 | 0.0 | 0.02 | 0.00 | 0.03 | 93 | 1002.0 |
| 20260505004502 | 52 | 359 | 0.0 | 0.0 | 0.04 | 0.00 | 0.03 | 92 | 1002.0 |
| 20260505003003 | 52 | 10 | 0.0 | 0.0 | 0.03 | 0.00 | 0.02 | 92 | 1002.0 |
| 20260505000004 | 52 | 15 | 0.0 | 0.0 | 0.03 | 0.00 | 0.00 | 92 | 1002.0 |
| 20260504234503 | 52 | 25 | 0.0 | 0.0 | 0.03 | 0.00 | 0.05 | 91 | 1002.0 |
| 20260504233004 | 52 | 39 | 0.0 | 0.0 | 0.05 | 0.00 | 0.05 | 91 | 1002.0 |
| 20260504231504 | 52 | 359 | 0.0 | 0.0 | 0.03 | 0.00 | 0.03 | 91 | 1002.0 |
| 20260504230005 | 53 | 15 | 0.0 | 0.0 | 0.03 | 0.00 | 0.03 | 90 | 1002.4 |
| 20260504224503 | 53 | 348 | 0.0 | 0.0 | 0.01 | 0.00 | 0.01 | 89 | 1002.0 |